Location: Newark
(39.1833°N, 3.3000°W)
Time: 21:50:39
(UTC+00:00)

Tiangong 2 - Pass Details

Date: 23 March 2019
Orbit: 378 x 390 km, 42.8° (Epoch: 23 April)

Event Time Altitude Azimuth Distance (km) Brightness Sun altitude
Exits shadow 03:47:14 12° 100° (E) 1,294 4.3 -28.0°
Drops below altitude 10° 03:47:30 10° 100° (E) 1,398 4.5 -27.9°
Sets 03:49:35 0° 103° (ESE) 2,252 5.7 -27.6°
